Location: *
(45.0242°N, 16.0939°E)
Time: 22:51:41
(UTC+00:00)

Daily predictions for brighter satellites

Satellite Brightness Start Highest point End
(mag) Time Altitude Azimuth Time Altitude Azimuth Time Altitude Azimuth
Meteor 1-21 4.3 17:22:35 10° N 17:28:09 61° ENE 17:33:43 10° SSE
Cosmos 2251 Rocket 3.6 17:22:53 10° NNW 17:28:17 70° ENE 17:33:37 10° SSE
Okean 2 Rocket 3.3 17:24:45 10° S 17:29:12 82° W 17:33:44 10° N
Meteor 2-9 Rocket 4.4 17:24:07 10° S 17:29:45 56° E 17:35:16 10° NNE
Cosmos 1975 3.0 17:31:32 10° SSW 17:35:29 77° W 17:39:30 10° N
GP-B 3.4 17:31:30 10° NNE 17:35:47 44° E 17:40:01 10° SSE
Cosmos 2297 Rocket 3.7 17:34:24 10° ESE 17:36:55 13° E 17:39:27 10° ENE
Cosmos 1842 3.2 17:33:31 10° N 17:37:29 70° E 17:41:25 10° SSE
USA 116 4.1 17:34:38 10° N 17:38:42 68° WNW 17:42:16 10° SSW
SAR-Lupe-2 4.3 17:40:13 10° NE 17:43:25 30° E 17:46:35 10° SSE
Cosmos 1544 3.5 17:40:37 10° SSE 17:43:57 38° E 17:47:19 10° NNE
IRS-1A Rocket 4.3 17:40:01 10° SSE 17:45:41 65° ENE 17:51:16 10° N
Cosmos 1025 Rocket 2.9 17:42:19 10° N 17:46:37 78° E 17:50:53 10° SSE
Cosmos 1536 Rocket 3.6 17:43:14 10° N 17:47:35 87° W 17:51:54 10° S
USA 186 3.1 17:44:52 10° SE 17:47:39 24° ENE 17:50:29 10° NNE
Meteor 2-15 4.4 17:43:45 10° S 17:49:51 73° E 17:56:00 10° NNE
GEOS 3 Rocket 3.6 17:45:27 10° SE 17:50:33 77° NE 17:55:41 10° NW
Nadezhda 1 Rocket 4.0 17:45:59 10° S 17:51:55 59° E 17:57:53 10° NNE
Cosmos 405 Rocket 4.3 17:51:17 13° ESE 17:52:03 14° E 17:54:02 10° NE
ISS -1.5 17:51:25 10° SE 17:51:56 10° SE 17:51:56 10° SE
Cosmos 2327 Rocket 4.5 17:45:54 10° N 17:52:08 68° E 17:58:14 10° SSE
Lacrosse 4 Rocket 4.3 17:50:23 10° WNW 17:52:44 15° WSW 17:55:03 10° SW
NOSS 0 Rocket 4.3 17:47:03 10° NNW 17:53:01 47° NE 17:58:53 10° SE
YAOGAN 1 3.9 17:49:35 10° S 17:53:43 43° W 17:57:52 10° NNW
USA 32 4.4 17:50:11 10° N 17:55:24 69° W 18:00:35 10° S
Cosmos 2333 Rocket 2.2 17:51:03 10° NNW 17:56:46 77° ENE 18:02:30 10° SSE
Timation 2 Rocket 4.1 17:52:46 10° SSW 17:59:24 86° WNW 18:05:47 10° NNE
Cosmos 389 Rocket 3.7 17:57:36 10° NNE 18:00:24 23° ENE 18:01:47 18° ESE
Ariane Rocket 3.2 18:01:02 10° S 18:06:04 74° WSW 18:11:10 10° NNW
Cosmos 2237 Rocket 2.8 18:01:25 10° NNW 18:06:46 39° NE 18:10:40 17° ESE
Cosmos 1441 Rocket 3.1 18:05:39 10° S 18:09:27 82° ESE 18:13:16 10° NNE
NOSS 3-4 (A) 3.9 18:02:43 10° NW 18:09:40 66° NE 18:16:07 15° SE
NOSS 3-4 (C) 3.9 18:02:50 10° NW 18:09:46 66° NE 18:16:11 15° SE
CZ-4 R/B 4.3 18:08:46 10° SW 18:11:35 19° W 18:14:26 10° NW
Cosmos 1461 3.3 18:09:57 10° SW 18:13:55 60° NW 18:17:52 10° NNE
Cosmos 2056 Rocket 4.2 18:09:13 10° SSE 18:13:58 32° E 18:18:43 10° NE
Cosmos 1980 4.0 18:10:29 10° NNW 18:15:58 47° ENE 18:19:41 20° SE
CZ-2C R/B 4.2 18:13:58 19° E 18:16:20 26° ENE 18:20:48 10° N
Cosmos 614 Rocket 4.4 18:12:13 10° N 18:17:12 43° ENE 18:20:17 21° ESE
Cosmos 407 Rocket 3.8 18:13:31 10° N 18:18:27 45° ENE 18:21:32 21° SE
Meteor 1-4 Rocket 3.3 18:17:34 10° N 18:20:46 30° ENE 18:21:20 28° E
BREEZE-M DEB (TANK) 4.3 18:06:04 10° WNW 18:22:27 81° NNE 18:25:00 25° ESE
HJ-1C 4.4 18:19:44 10° S 18:23:00 48° W 18:26:18 10° NNW
Cosmos 1674 4.5 18:20:35 10° NNE 18:22:23 16° ENE 18:22:23 16° ENE
COSMOS 2455 4.0 18:17:30 10° NW 18:23:07 42° WSW 18:28:42 10° S
Cosmos 1624 Rocket 4.3 18:21:13 10° S 18:26:02 40° ESE 18:30:52 10° NE
CZ-2C R/B 3.5 18:23:54 10° NNE 18:28:24 78° ESE 18:32:49 10° S
Cosmos 2341 Rocket 3.9 18:24:57 10° N 18:31:12 66° E 18:37:21 10° SSE
Cosmos 1707 2.7 18:29:07 10° N 18:33:04 85° W 18:36:31 13° S
Cosmos 2181 Rocket 4.2 18:27:13 10° SSE 18:33:09 49° E 18:39:14 10° NNE
SJ-6B 2.8 18:32:09 16° SSE 18:35:23 84° ENE 18:39:31 10° NNW
SPOT 3 Rocket 3.4 18:31:12 12° SSE 18:35:59 81° ENE 18:41:10 10° NNW
SL-16 R/B 3.3 18:31:40 10° N 18:36:31 28° NE 18:38:14 24° E
ADEOS Rocket 3.6 18:30:59 10° NNE 18:38:10 54° E 18:45:43 10° S
Cosmos 1544 Rocket 4.2 18:39:52 34° E 18:39:54 34° E 18:43:57 10° NNE
Cosmos 1455 Rocket 3.4 18:39:20 34° SE 18:40:35 42° E 18:44:48 10° NNE
Cosmos 2219 Rocket 3.1 18:38:24 10° NW 18:43:45 48° WSW 18:49:06 10° S
Cosmos 1140 Rocket 3.7 18:40:46 10° NNW 18:45:50 52° ENE 18:47:29 37° ESE
COSMOS 2428 3.7 18:42:08 10° NW 18:47:29 44° WSW 18:52:50 10° S
Cosmos 2218 Rocket 4.1 18:44:55 10° N 18:51:13 57° ENE 18:54:17 30° SE
ATLAS 2AS CENTAUR R/B 3.4 18:45:50 10° NW 18:53:14 55° WSW 18:58:57 15° S
Cosmos 2366 rocket 4.1 18:49:52 10° N 18:56:10 58° ENE 18:58:54 34° SE
Cosmos 1371 Rocket 3.9 18:51:26 10° SSW 18:56:45 86° ESE 19:02:08 10° NNE
CZ-2C R/B 4.3 18:53:12 10° NE 18:55:22 19° ENE 18:55:22 19° ENE
SL-08 RB Rocket 3.7 18:57:19 47° SE 18:58:31 66° ENE 19:03:10 10° N
Resurs 1-3 3.5 19:00:34 53° SE 19:01:31 77° ENE 19:05:56 10° N
ASTEX 1 4.4 18:59:49 10° N 19:04:28 46° WNW 19:09:07 10° SSW
Resurs 01 Rocket 1.5 19:05:43 63° E 19:06:03 66° ENE 19:10:28 10° N
SL-8 Rocket 3.9 19:00:47 10° N 19:07:00 87° E 19:10:33 27° S
H-2A R/B 2.0 19:04:22 28° S 19:07:01 74° WSW 19:12:03 10° NNW
SL-8 R/B 4.1 19:04:16 10° W 19:09:00 58° N 19:10:24 41° NE
Cosmos 2227 Rocket 2.0 19:03:33 10° SSW 19:09:10 70° ESE 19:14:49 10° NNE
Cosmos 2219 3.4 19:03:32 10° SSW 19:09:16 72° WNW 19:15:02 10° NNE
Cosmos 676 Rocket 3.9 19:06:11 10° NNW 19:11:27 70° ENE 19:12:17 59° ESE
Meteor 2-17 Rocket 4.5 19:06:17 10° NNW 19:12:22 77° W 19:16:21 23° S
MetOp-B 4.5 19:12:53 44° ENE 19:13:03 45° ENE 19:18:07 10° N
ARGOS 3.4 19:12:30 27° S 19:15:28 68° WSW 19:20:51 10° NNW
BREEZE M DEB (TANK) 3.1 19:15:01 10° WNW 19:17:35 45° NNE 19:17:51 44° NNE
USA 186 4.4 19:16:25 13° SW 19:18:31 21° W 19:21:12 10° NW
Cosmos 2297 Rocket 2.1 19:14:25 10° SSW 19:20:05 89° ESE 19:25:47 10° NNE
ERBS 4.3 19:17:54 10° NNW 19:19:52 24° N 19:19:52 24° N
Cosmos 1959 Rocket 4.4 19:15:05 10° N 19:21:15 89° W 19:23:42 39° S
Cosmos 1437 Rocket 3.5 19:20:33 10° N 19:23:15 45° N 19:23:15 45° N
BREEZE-M DEB (TANK) 4.2 19:22:44 10° WNW 19:27:24 64° NNE 19:31:48 34° E
Cosmos 405 Rocket 3.9 19:26:20 28° WSW 19:27:40 38° WNW 19:31:11 10° N
DELTA 2 R/B (1) 4.4 19:26:25 10° SW 19:30:21 36° SSW 19:30:21 36° SSW
RESURS DK-1 4.3 19:32:03 10° N 19:34:01 21° NNE 19:34:01 21° NNE
MetOp-A 4.4 19:37:08 51° SSW 19:38:19 65° WSW 19:43:39 10° NNW
Meteor 1-24 Rocket 3.7 19:32:46 10° NNW 19:38:35 85° W 19:39:27 66° S
Cosmos 2237 Rocket 3.4 19:45:37 10° NW 19:50:45 35° WSW 19:52:31 29° SW
CZ-2C R/B 3.8 19:55:02 43° SW 19:55:53 47° W 20:01:09 10° NNW
Terra 3.9 20:06:35 19° NNE 20:06:35 19° NNE 20:08:14 10° N
USA 234 4.4 20:13:12 30° NE 20:15:02 35° NNE 20:20:50 10° NW
ERS-1 Rocket 4.3 20:20:34 35° N 20:20:34 35° N 20:23:28 10° NNW
SL-16 R/B 2.9 20:15:25 10° NW 20:20:07 48° W 20:20:07 48° W
Nadezhda 3 Rocket 4.4 20:32:10 57° NNW 20:32:10 57° NNW 20:37:18 10° N
CZ-2C R/B 3.7 20:32:47 10° N 20:36:53 43° NNW 20:36:53 43° NNW
Resurs 01 Rocket 4.4 20:43:17 13° W 20:43:17 13° W 20:45:07 10° WNW
CZ-4C R/B 4.5 20:39:41 10° NNW 20:44:46 22° NNE 20:46:28 20° NE
Cosmos 2227 Rocket 4.4 20:49:25 10° W 20:53:47 22° NW 20:58:11 10° N
CZ-4C R/B 4.1 22:27:50 10° NNW 22:31:37 34° NNW 22:31:37 34° NNW
